Wind_Speed
18 18 18 18 18 18 16 15 16 15 15 15 15 16 17 17 17 17 17 16 16 16 16 17 17 16 16 15 15 14 14 14 13 13 13 13 13 12 10 10 9 8 8 8 7 7 7 7 7
19 20 19 19 18 18 17 17 17 17 16 17 17 18 18 18 18 18 18 17 17 18 18 18 18 17 17 17 17 16 15 15 15 15 15 14 14 13 12 11 11 10 9 9 9 8 8 8 8
20 20 21 20 19 19 18 18 19 18 18 18 19 19 19 19 19 19 19 19 19 19 19 19 19 18 18 18 18 18 17 16 16 16 16 15 15 14 13 12 12 12 11 11 10 10 10 9 9
20 21 21 21 20 20 20 19 20 20 19 20 21 21 21 21 21 21 20 21 21 21 21 20 20 20 20 19 19 19 18 18 17 17 17 17 16 15 15 14 14 13 13 12 12 11 11 11 10
21 21 22 21 20 20 21 21 21 22 22 22 22 22 22 22 22 22 22 22 22 22 22 22 21 21 21 21 20 20 20 19 19 18 18 18 17 17 16 16 16 15 15 14 13 13 12 12 12
21 22 23 22 21 21 22 23 22 23 23 23 23 23 23 23 23 23 23 24 24 24 23 23 22 22 22 22 22 21 21 21 20 20 19 19 19 18 18 17 17 17 17 16 16 15 14 14 14
22 23 23 23 22 23 24 24 24 24 25 25 25 25 24 25 25 25 25 25 25 25 24 24 24 24 23 23 23 23 23 22 22 21 20 20 20 20 20 19 19 18 18 18 18 17 17 16 16
23 24 24 24 24 24 25 25 25 26 27 26 26 26 26 26 26 26 26 26 26 26 26 26 26 26 26 25 24 24 24 24 24 23 22 21 21 21 21 21 21 20 20 21 20 19 19 18 18
24 25 25 25 26 26 27 27 27 28 28 28 28 28 28 28 28 27 27 28 27 27 28 28 28 28 28 28 27 26 26 26 26 26 25 24 23 23 23 23 23 22 22 22 22 22 21 21 21
27 27 27 27 27 28 28 28 29 29 29 29 30 30 29 29 29 28 28 29 29 29 29 30 30 30 30 30 29 28 28 28 28 28 27 26 26 25 25 25 24 25 25 24 25 25 24 24 24
28 29 28 29 29 29 29 29 30 30 30 31 32 32 32 31 31 31 30 31 31 31 31 32 32 32 32 31 31 30 30 30 30 30 29 29 28 28 27 27 26 27 27 27 28 28 27 26 26
30 30 30 31 31 31 31 31 31 32 32 34 34 34 34 34 34 33 32 32 32 33 33 33 33 33 33 33 33 33 32 31 32 32 32 31 31 30 29 29 29 30 30 29 29 29 30 29 28
31 32 32 32 32 33 34 34 33 34 35 35 35 35 35 35 35 35 35 34 34 33 33 34 34 35 35 35 34 34 33 33 33 34 34 34 33 32 32 32 32 31 31 32 32 31 31 31 30
33 33 33 34 34 35 35 35 36 35 36 36 36 36 36 36 36 36 36 35 35 35 35 35 35 36 36 36 36 35 35 35 34 34 35 36 35 35 34 34 33 33 33 34 34 33 33 32 32
35 36 36 35 36 37 37 37 37 37 37 37 37 37 37 37 37 37 37 37 36 37 37 36 36 36 37 37 37 37 37 37 36 36 37 38 37 37 37 37 36 35 35 34 34 34 33 34 33
36 37 37 37 38 38 39 39 38 39 39 39 39 38 39 39 39 38 38 38 38 38 39 38 38 38 38 38 39 39 39 39 38 38 39 39 39 39 38 39 38 36 35 34 34 35 34 35 34
37 38 38 38 39 40 41 41 39 40 41 41 41 41 40 40 41 41 41 40 40 40 40 41 40 40 40 39 40 41 41 41 41 41 40 40 41 41 41 41 40 38 37 36 35 36 35 35 36
38 39 39 39 39 40 41 41 40 41 42 41 41 42 42 42 43 43 43 42 42 42 43 43 43 43 42 41 41 42 42 42 43 43 42 41 41 42 42 42 41 40 39 38 37 36 36 36 36
39 39 40 39 39 40 40 41 41 41 42 42 42 42 43 43 44 45 45 44 44 45 45 45 45 44 43 43 43 42 42 42 43 43 43 43 43 42 43 43 42 40 40 39 38 37 37 36 36
39 40 40 40 40 41 41 41 41 41 41 42 42 42 43 44 45 46 46 46 46 46 46 46 46 45 45 44 44 44 44 43 43 44 44 43 43 43 42 42 42 41 41 40 39 39 38 37 37
40 40 41 41 41 42 43 43 41 41 41 41 42 42 43 44 45 46 47 47 47 46 46 46 47 46 46 46 45 46 46 45 45 45 44 43 43 43 42 41 41 41 41 41 40 40 40 39 39
40 40 41 41 42 42 42 44 42 42 41 41 41 42 43 44 45 46 47 47 47 47 46 46 47 48 47 47 46 47 47 47 46 46 45 44 44 44 43 42 42 42 42 42 42 41 41 41 40
40 40 41 41 42 43 42 44 43 42 42 41 41 42 43 43 44 45 46 47 47 47 47 47 48 49 49 49 48 48 47 48 47 46 46 44 44 45 45 44 44 44 43 43 43 42 42 42 41
40 40 40 41 42 43 41 43 44 43 42 41 41 42 42 43 44 44 45 46 47 47 47 47 48 49 49 49 49 48 48 48 47 47 47 46 45 46 46 45 44 44 45 44 43 43 42 42 42
39 39 40 41 42 43 41 43 44 43 42 42 41 42 43 43 43 43 44 44 46 46 47 47 48 48 49 49 49 49 48 48 48 48 48 48 47 46 47 47 45 45 45 45 45 44 44 44 44
37 38 39 41 42 42 41 43 43 42 42 41 41 42 43 43 43 44 44 45 45 46 47 47 47 48 49 49 49 49 49 49 49 49 49 49 47 47 47 48 47 46 46 46 46 46 46 45 45
37 37 37 39 41 42 42 43 42 41 41 41 42 42 42 43 43 44 44 44 45 45 46 47 47 48 49 49 50 50 50 50 50 50 50 49 48 47 47 48 48 48 47 47 47 47 47 47 47
36 36 36 37 39 41 41 41 41 40 41 42 42 43 42 43 43 44 44 44 45 46 47 47 47 48 49 49 50 50 50 50 50 51 51 51 50 49 48 49 49 50 49 49 49 49 49 48 48
36 35 36 37 38 39 40 40 39 39 41 41 42 42 42 43 44 44 44 45 44 45 46 47 47 47 48 49 49 50 50 50 50 51 52 52 52 51 50 50 51 51 51 50 50 50 50 50 50
35 35 35 37 37 38 40 40 39 39 40 41 41 42 42 43 43 44 44 44 44 44 45 45 46 47 47 48 49 49 49 49 50 50 51 51 52 52 51 51 51 52 51 51 51 51 51 51 50
Wind_Direction
244 243 244 248 251 253 254 255 254 252 254 256 258 258 259 259 258 257 258 257 256 256 256 257 257 257 258 259 261 261 259 257 255 254 256 258 255 253 254 256 257 257 256 254 253 249 247 246 243
244 244 245 248 252 253 253 254 255 253 255 257 257 258 258 259 258 258 257 258 257 257 256 256 257 257 257 258 259 260 259 257 256 256 257 258 258 255 254 255 256 256 256 255 255 252 247 246 244
245 246 247 249 252 254 254 256 257 256 258 258 257 258 259 260 259 258 257 258 259 259 258 257 257 256 256 256 257 257 258 257 256 257 257 259 259 258 257 257 257 256 254 254 254 255 252 250 249
247 247 248 250 252 255 256 258 258 258 258 259 259 258 258 259 260 260 259 259 259 259 258 257 256 256 255 256 256 257 256 256 256 258 259 259 259 259 258 258 258 257 255 253 254 254 253 252 251
249 249 250 251 253 256 256 257 258 259 259 260 260 260 260 261 260 260 260 259 259 259 258 258 256 255 255 255 255 255 256 256 256 258 258 259 261 260 258 257 256 257 257 255 255 255 253 251 252
252 253 253 253 254 256 256 257 259 258 260 260 261 261 261 262 262 262 262 261 259 259 258 257 256 255 255 255 255 255 256 256 256 257 257 258 259 260 259 257 256 256 256 255 256 257 255 253 252
255 255 256 256 256 256 256 256 258 260 261 260 261 262 263 263 264 264 264 263 261 259 257 256 256 256 256 256 256 255 255 256 256 256 257 257 258 259 259 258 258 257 257 257 256 257 256 255 254
258 258 257 258 260 258 257 258 259 260 261 262 263 263 263 264 265 266 266 265 262 260 258 257 258 258 257 256 256 256 256 255 255 255 256 257 257 259 260 258 258 258 257 257 257 256 256 255 255
260 260 260 261 262 260 259 259 261 261 262 263 264 264 264 265 266 266 266 265 263 261 259 259 259 259 258 257 256 256 256 256 254 254 256 257 258 258 260 259 258 257 257 257 257 256 255 255 255
262 263 263 263 263 262 261 262 262 263 264 264 265 265 265 264 265 265 265 264 263 261 261 260 259 259 259 258 257 257 256 256 255 254 255 257 258 258 258 259 258 257 257 257 257 256 255 254 254
263 264 264 264 264 264 263 263 264 265 266 267 266 265 265 265 265 265 265 264 263 262 262 261 260 259 258 258 258 257 257 256 255 254 255 257 257 258 258 257 257 258 258 258 258 258 256 255 254
265 265 265 265 265 264 265 265 266 267 268 268 267 266 265 265 265 265 265 264 264 263 262 261 260 259 258 258 258 257 257 257 256 256 256 256 257 258 259 259 259 259 258 259 259 259 257 257 257
266 266 266 266 265 265 266 266 267 269 269 269 267 266 266 266 266 265 265 264 264 264 263 263 262 260 259 259 258 258 257 258 258 257 256 255 257 257 259 261 261 260 259 258 260 259 257 256 255
266 266 266 266 266 266 266 267 268 269 269 269 268 267 267 267 266 265 265 264 263 263 263 263 262 261 260 259 258 257 258 259 260 259 257 256 256 258 261 262 262 261 260 260 260 258 256 254 254
267 267 267 267 267 267 267 267 268 268 269 268 268 267 267 267 266 266 265 264 263 263 263 262 262 261 260 260 259 257 258 259 259 259 258 258 258 259 260 261 262 262 261 259 258 258 256 254 253
269 268 268 268 268 268 268 269 267 267 267 268 267 267 267 266 266 265 265 264 264 263 263 262 261 261 261 260 260 259 258 259 259 259 259 260 260 259 259 260 261 261 259 258 258 257 255 253 252
270 271 270 269 268 269 269 269 268 268 267 267 267 267 267 266 265 265 265 264 264 263 262 261 261 261 261 261 261 260 260 260 259 259 260 261 261 259 260 260 259 258 258 258 258 257 254 253 252
272 272 272 271 270 269 269 269 267 268 268 267 267 266 266 266 265 265 265 264 263 263 262 261 260 260 260 261 261 260 260 260 259 259 260 261 261 261 260 259 258 257 257 256 257 257 255 253 252
272 272 273 272 271 270 269 269 268 268 268 268 267 266 266 266 265 265 265 265 264 263 262 261 260 259 259 260 261 260 260 260 260 260 260 261 261 262 260 258 257 256 256 256 256 256 254 253 251
272 272 272 272 271 271 270 269 269 268 268 268 267 267 267 267 266 265 265 264 265 264 262 260 259 258 258 259 260 260 260 259 260 260 260 261 261 261 260 258 256 256 255 255 255 255 253 251 251
271 272 273 272 271 271 271 270 269 268 268 269 269 268 268 267 266 265 265 264 264 263 261 259 258 258 258 259 260 260 260 260 260 261 261 260 259 258 258 258 257 256 255 254 254 253 253 252 251
271 272 273 272 271 271 272 272 269 269 269 270 271 271 270 269 268 266 265 263 262 262 261 259 258 257 258 259 260 261 261 260 260 260 260 258 258 257 257 258 258 256 255 255 255 254 253 253 251
271 272 272 272 272 272 272 273 272 271 271 272 273 273 272 271 270 268 266 264 262 261 261 259 258 258 258 259 260 260 261 261 260 260 259 258 257 257 257 257 257 256 256 255 255 254 253 253 252
272 272 272 272 272 272 273 274 275 274 274 274 274 274 273 272 272 269 267 265 263 262 261 259 259 258 259 259 260 261 260 260 259 259 258 257 256 256 256 256 256 257 256 255 254 253 252 253 253
273 273 274 274 273 273 274 275 276 276 276 276 276 276 275 274 272 270 267 265 263 262 261 259 259 259 259 259 259 260 259 258 258 258 257 257 256 255 254 255 255 257 257 255 254 253 252 253 253
273 273 274 275 275 275 275 276 278 278 279 279 278 278 278 276 273 271 269 268 266 264 262 261 260 259 259 258 258 258 259 258 258 257 256 256 255 255 254 254 254 256 256 255 253 253 253 253 254
274 273 274 275 275 276 277 278 278 279 280 280 279 279 279 277 275 272 270 269 267 266 264 263 261 260 259 258 257 258 258 258 258 257 256 255 254 254 254 254 254 255 256 255 255 254 254 254 254
274 275 275 274 276 277 278 279 279 280 281 281 281 281 280 279 277 273 271 270 269 268 266 264 262 261 260 260 259 258 259 258 257 256 256 255 254 254 254 254 254 254 255 256 255 255 254 254 254
275 275 275 274 275 277 279 280 281 282 282 282 283 283 281 280 278 275 272 271 271 270 267 265 264 262 261 260 260 259 259 259 257 256 256 256 255 254 254 254 254 254 255 255 255 255 254 254 254
275 275 275 275 275 276 278 280 281 282 283 283 284 283 282 281 279 277 275 274 272 271 269 266 264 263 262 262 261 260 260 259 258 256 256 256 255 255 254 254 253 253 254 254 254 254 254 253 254
Height
5809 5810 5811 5813 5815 5816 5816 5818 5818 5819 5820 5821 5822 5823 5823 5824 5825 5828 5827 5827 5828 5828 5829 5830 5830 5831 5832 5832 5833 5834 5834 5835 5836 5836 5837 5837 5838 5838 5839 5839 5840 5840 5841 5841 5842 5842 5843 5843 5844
5805 5807 5809 5810 5811 5812 5813 5814 5815 5816 5817 5818 5819 5819 5820 5821 5822 5822 5823 5824 5824 5825 5826 5826 5827 5828 5829 5829 5830 5831 5832 5832 5833 5834 5834 5835 5836 5836 5837 5837 5838 5839 5839 5840 5840 5841 5841 5842 5843
5802 5803 5805 5806 5807 5808 5810 5810 5811 5812 5814 5814 5815 5816 5817 5818 5818 5819 5819 5820 5821 5821 5822 5822 5823 5824 5825 5826 5827 5827 5828 5829 5830 5831 5832 5833 5833 5834 5834 5835 5836 5836 5837 5838 5838 5839 5839 5840 5841
5798 5800 5802 5803 5804 5805 5806 5807 5807 5808 5810 5810 5811 5812 5813 5814 5814 5815 5815 5816 5817 5817 5818 5818 5819 5820 5821 5822 5823 5824 5825 5826 5827 5828 5829 5829 5830 5831 5832 5832 5833 5834 5835 5835 5836 5837 5837 5838 5839
5794 5796 5798 5799 5800 5801 5801 5802 5803 5804 5805 5806 5807 5808 5808 5810 5810 5810 5811 5811 5812 5812 5813 5814 5815 5815 5816 5818 5819 5820 5821 5822 5823 5824 5825 5826 5827 5828 5828 5829 5830 5831 5832 5833 5833 5834 5835 5836 5836
5791 5792 5794 5795 5796 5797 5797 5798 5799 5800 5801 5802 5802 5803 5804 5804 5805 5806 5806 5806 5807 5807 5808 5809 5810 5811 5812 5813 5814 5815 5816 5817 5819 5820 5821 5822 5823 5824 5825 5826 5827 5827 5828 5829 5830 5831 5832 5833 5834
5787 5788 5789 5790 5791 5792 5793 5793 5794 5795 5796 5797 5797 5798 5798 5799 5800 5801 5801 5801 5801 5802 5803 5804 5805 5806 5807 5808 5809 5811 5812 5813 5814 5815 5816 5817 5819 5820 5820 5821 5823 5823 5824 5825 5826 5827 5829 5830 5831
5782 5784 5784 5785 5786 5787 5788 5788 5789 5790 5791 5792 5792 5792 5793 5794 5794 5795 5795 5795 5796 5797 5798 5799 5800 5801 5802 5803 5804 5805 5807 5808 5809 5810 5811 5812 5813 5815 5816 5817 5818 5819 5820 5821 5822 5823 5824 5826 5827
5777 5779 5779 5780 5781 5781 5782 5783 5784 5784 5785 5785 5786 5787 5787 5788 5788 5789 5789 5789 5790 5791 5792 5793 5794 5795 5796 5797 5799 5800 5801 5802 5803 5805 5806 5807 5808 5809 5810 5811 5813 5814 5815 5816 5817 5818 5819 5821 5822
5772 5773 5774 5775 5775 5775 5776 5777 5778 5778 5779 5779 5779 5780 5780 5781 5782 5782 5783 5783 5784 5785 5786 5787 5788 5789 5790 5791 5792 5793 5794 5796 5797 5798 5800 5801 5802 5803 5804 5805 5807 5808 5809 5810 5811 5813 5814 5815 5817
5766 5767 5768 5768 5768 5769 5770 5770 5771 5771 5772 5772 5772 5773 5773 5774 5775 5776 5776 5777 5777 5778 5779 5780 5781 5782 5783 5784 5785 5786 5788 5789 5790 5791 5793 5794 5796 5797 5798 5799 5800 5801 5802 5804 5805 5806 5808 5809 5811
5759 5760 5760 5761 5762 5762 5763 5763 5764 5764 5765 5764 5764 5765 5765 5766 5767 5768 5769 5769 5770 5770 5771 5772 5773 5774 5775 5776 5778 5779 5780 5782 5783 5784 5785 5787 5789 5790 5791 5792 5793 5794 5795 5796 5797 5798 5800 5802 5803
5751 5752 5753 5753 5754 5754 5755 5755 5756 5757 5756 5756 5756 5756 5757 5758 5759 5760 5760 5761 5762 5763 5763 5764 5765 5766 5767 5768 5770 5771 5773 5774 5775 5777 5778 5779 5781 5782 5783 5784 5785 5785 5786 5787 5788 5790 5791 5793 5795
5744 5744 5744 5745 5745 5746 5746 5747 5747 5748 5747 5747 5747 5748 5749 5750 5750 5751 5751 5752 5753 5754 5755 5756 5757 5757 5758 5759 5761 5762 5764 5766 5767 5769 5770 5771 5772 5773 5774 5775 5776 5776 5777 5778 5779 5780 5782 5784 5787
5735 5736 5736 5737 5736 5737 5738 5738 5738 5738 5738 5738 5739 5740 5740 5741 5741 5742 5742 5743 5744 5745 5746 5747 5748 5749 5749 5751 5752 5753 5755 5757 5758 5760 5761 5762 5763 5764 5765 5766 5766 5767 5767 5768 5769 5771 5772 5775 5778
5726 5726 5727 5728 5727 5727 5728 5729 5729 5728 5728 5729 5729 5730 5731 5731 5732 5732 5733 5733 5735 5736 5737 5737 5739 5740 5740 5741 5743 5744 5745 5747 5749 5750 5752 5753 5753 5754 5755 5756 5757 5757 5758 5759 5760 5761 5763 5766 5769
5717 5716 5717 5717 5717 5716 5716 5717 5719 5718 5718 5718 5719 5719 5720 5721 5721 5722 5722 5723 5725 5726 5726 5727 5729 5730 5731 5732 5733 5734 5736 5737 5739 5740 5741 5742 5743 5744 5745 5746 5746 5747 5748 5749 5751 5752 5754 5756 5759
5707 5706 5706 5706 5706 5705 5705 5706 5707 5706 5706 5707 5707 5708 5709 5709 5710 5710 5711 5713 5714 5715 5715 5716 5718 5719 5721 5722 5723 5724 5725 5727 5728 5729 5731 5731 5732 5733 5734 5735 5736 5737 5739 5740 5741 5743 5745 5747 5750
5696 5695 5695 5695 5694 5694 5694 5694 5695 5695 5695 5695 5695 5696 5697 5697 5698 5698 5699 5701 5702 5703 5704 5705 5706 5708 5709 5711 5712 5713 5715 5716 5718 5719 5720 5721 5721 5722 5723 5724 5726 5727 5729 5730 5732 5733 5735 5738 5741
5685 5684 5684 5684 5683 5683 5683 5683 5684 5684 5684 5683 5684 5684 5684 5685 5685 5686 5687 5688 5689 5690 5692 5693 5694 5696 5698 5699 5701 5702 5703 5705 5707 5708 5708 5709 5710 5711 5712 5714 5715 5717 5719 5720 5722 5724 5726 5729 5731
5674 5674 5674 5673 5673 5672 5671 5672 5673 5673 5673 5672 5672 5672 5672 5672 5673 5673 5674 5675 5676 5677 5678 5680 5682 5684 5685 5687 5689 5690 5691 5693 5695 5696 5697 5698 5699 5700 5701 5703 5704 5706 5708 5710 5712 5714 5717 5719 5722
5664 5663 5662 5662 5661 5661 5661 5659 5662 5662 5662 5661 5661 5661 5660 5660 5660 5660 5660 5661 5662 5664 5665 5667 5669 5671 5673 5674 5676 5677 5679 5681 5682 5684 5685 5686 5687 5689 5690 5692 5694 5696 5698 5700 5702 5704 5707 5710 5713
5653 5653 5652 5651 5650 5649 5650 5648 5650 5650 5650 5651 5650 5649 5648 5647 5647 5647 5647 5647 5648 5650 5651 5653 5655 5657 5659 5661 5663 5664 5666 5668 5669 5671 5673 5674 5676 5677 5679 5681 5683 5685 5687 5689 5692 5694 5696 5699 5703
5642 5642 5641 5640 5639 5638 5640 5638 5637 5638 5639 5639 5638 5637 5636 5635 5634 5634 5633 5634 5635 5636 5637 5639 5641 5643 5645 5647 5649 5650 5652 5654 5656 5658 5660 5662 5664 5666 5668 5670 5672 5674 5676 5679 5681 5683 5686 5689 5692
5633 5632 5631 5629 5627 5628 5629 5626 5627 5628 5627 5627 5626 5625 5624 5623 5621 5621 5620 5620 5621 5622 5623 5625 5627 5629 5631 5633 5635 5637 5638 5640 5643 5645 5647 5649 5652 5654 5656 5658 5660 5662 5665 5667 5670 5673 5675 5678 5681
5623 5622 5622 5619 5618 5617 5617 5616 5617 5617 5616 5615 5614 5613 5611 5610 5608 5607 5607 5608 5608 5609 5610 5611 5613 5615 5617 5619 5621 5623 5624 5627 5629 5631 5634 5636 5639 5641 5643 5646 5648 5651 5653 5656 5659 5661 5664 5666 5669
5613 5612 5612 5610 5607 5607 5607 5606 5606 5606 5605 5603 5602 5600 5599 5597 5596 5594 5594 5595 5595 5595 5596 5597 5599 5601 5603 5605 5607 5609 5611 5613 5615 5617 5620 5622 5625 5628 5630 5633 5636 5638 5641 5643 5646 5649 5652 5654 5657
5604 5603 5602 5599 5597 5596 5596 5596 5596 5595 5594 5593 5591 5589 5587 5585 5583 5582 5581 5581 5582 5582 5582 5583 5585 5587 5588 5590 5592 5594 5596 5598 5601 5603 5606 5608 5611 5614 5617 5620 5622 5625 5628 5630 5633 5636 5639 5642 5644
5595 5594 5592 5590 5589 5587 5586 5589 5587 5585 5582 5581 5579 5577 5575 5573 5571 5570 5569 5568 5568 5568 5568 5569 5571 5572 5574 5576 5577 5579 5581 5583 5585 5588 5591 5594 5596 5599 5603 5606 5609 5611 5614 5617 5620 5623 5626 5628 5631
5585 5584 5583 5582 5581 5579 5577 5580 5577 5575 5572 5570 5568 5566 5563 5561 5559 5557 5556 5555 5555 5555 5554 5555 5556 5558 5559 5561 5562 5565 5567 5569 5571 5574 5576 5579 5582 5585 5588 5591 5594 5597 5600 5603 5606 5609 5612 5615 5618